Sioux Falls, SD

11:58 AM CST on February 28, 2017 (GMT -0600)
Foss

Weather History for KFSD - April, 2012

Change the Weather History Date:

Monday, April 30, 2012

  Actual Average Record
Temperature  
Mean Temperature 58 °F 53 °F  
Max Temperature 70 °F 65 °F 92 °F (1992)
Min Temperature 46 °F 40 °F 17 °F (1903)
Degree Days  
Heating Degree Days 7 13  
Month to date heating degree days 407 562  
Since 1 July heating degree days 5885 7407  
Cooling Degree Days 0 0  
Month to date cooling degree days 14 5  
Year to date cooling degree days 28 5  
Growing Degree Days 8 (Base 50)    
Moisture  
Dew Point 45 °F    
Average Humidity 74    
Maximum Humidity 93    
Minimum Humidity 29    
Precipitation  
Precipitation 0.00 in 0.10 in 1.87 in (1937)
Month to date precipitation 2.40 3.01  
Year to date precipitation 6.35 5.93  
Snow  
Snow 0.00 in 0.10 in T in (2005)
Month to date snowfall 0.0 4.6  
Since 1 July snowfall 15.9 44.5  
Snow Depth 0.00 in    
Sea Level Pressure  
Sea Level Pressure 29.92 in    
Wind  
Wind Speed 8 mph (SSW)    
Max Wind Speed 21 mph    
Max Gust Speed 28 mph    
Visibility 6 miles    
Events      
T = Trace of Precipitation, MM = Missing Value Source: NWS Daily Summary

Daily Weather History Graph

Daily Weather History Graph

Search for Another Location

Airport or City:

Trip Planner

Search our weather history database for the weather conditions in past years. The results will help you decide how hot, cold, wet, or windy it might be!

Date:

Astronomy

Apr. 30, 2012 Rise Set
Actual Time 6:20 AM CDT 8:28 PM CDT
Civil Twilight 5:48 AM CDT 9:00 PM CDT
Nautical Twilight 5:10 AM CDT 9:38 PM CDT
Astronomical Twilight 4:27 AM CDT 10:21 PM CDT
Moon 2:16 PM CDT (4/30) 2:57 AM CDT (4/30)
Length of Visible Light 15h 11m
Length of Day
14h 08m
Waxing Gibbous, 64% of the Moon is Illuminated
Apr 30
Waxing Gibbous
May 5
Full
May 12
Last Quarter
May 20
New
May 28
First Quarter

Hourly Weather History & Observations

Time (CDT) Temp. Windchill Dew Point Humidity Pressure Visibility Wind Dir Wind Speed Gust Speed Precip Events Conditions
12:56 AM 46.0 °F 42.5 °F 42.1 °F 86% 30.01 in 4.0 mi SSE 6.9 mph - N/A   Mostly Cloudy
1:56 AM 46.0 °F 43.9 °F 44.1 °F 93% 29.99 in 3.0 mi WSW 4.6 mph - N/A   Overcast
2:31 AM 46.4 °F 45.2 °F 44.6 °F 93% 29.95 in 2.5 mi Variable 3.5 mph - N/A   Overcast
2:33 AM 46.4 °F - 44.6 °F 93% 29.95 in 2.0 mi Calm Calm - N/A   Overcast
2:56 AM 46.0 °F 44.8 °F 44.1 °F 93% 29.98 in 1.0 mi WNW 3.5 mph - N/A   Overcast
3:27 AM 46.4 °F 45.2 °F 44.6 °F 93% 29.97 in 2.0 mi West 3.5 mph - N/A   Overcast
3:56 AM 46.0 °F - 44.1 °F 93% 30.00 in 2.5 mi Calm Calm - N/A   Overcast
4:29 AM 46.4 °F - 44.6 °F 93% 29.99 in 3.0 mi Calm Calm - N/A   Overcast
4:56 AM 46.9 °F - 44.1 °F 90% 30.01 in 3.0 mi South 4.6 mph - N/A   Overcast
5:44 AM 46.4 °F 42.9 °F 44.6 °F 93% 29.98 in 2.0 mi South 6.9 mph - N/A   Overcast
5:49 AM 46.4 °F 42.4 °F 44.6 °F 93% 29.98 in 1.5 mi South 8.1 mph - N/A   Overcast
5:56 AM 46.9 °F - 45.0 °F 93% 30.00 in 1.5 mi South 5.8 mph - N/A   Overcast
6:56 AM 46.9 °F - 45.0 °F 93% 29.99 in 1.5 mi South 4.6 mph - N/A   Overcast
7:03 AM 46.4 °F 42.9 °F 44.6 °F 93% 29.97 in 2.5 mi South 6.9 mph - N/A   Overcast
7:56 AM 48.0 °F - 45.0 °F 89% 29.99 in 2.5 mi South 8.1 mph - N/A   Overcast
8:56 AM 48.0 °F - 46.0 °F 93% 29.99 in 2.0 mi SSW 9.2 mph - N/A   Overcast
9:56 AM 48.9 °F - 46.0 °F 90% 29.98 in 2.0 mi SSW 8.1 mph - N/A   Overcast
10:46 AM 51.8 °F - 46.4 °F 82% 29.95 in 3.0 mi SW 5.8 mph - N/A   Overcast
10:56 AM 52.0 °F - 48.0 °F 86% 29.97 in 3.0 mi SW 5.8 mph - N/A   Mostly Cloudy
11:48 AM 55.4 °F - 48.2 °F 77% 29.94 in 8.0 mi Variable 4.6 mph - N/A   Scattered Clouds
11:56 AM 55.9 °F - 48.9 °F 77% 29.95 in 8.0 mi South 8.1 mph - N/A   Partly Cloudy
12:56 PM 61.0 °F - 48.9 °F 64% 29.92 in 10.0 mi Variable 5.8 mph - N/A   Clear
1:56 PM 64.0 °F - 48.9 °F 58% 29.90 in 10.0 mi Variable 5.8 mph - N/A   Clear
2:56 PM 66.0 °F - 46.9 °F 50% 29.88 in 10.0 mi SSW 6.9 mph - N/A   Scattered Clouds
3:56 PM 68.0 °F - 41.0 °F 37% 29.85 in 10.0 mi SSW 5.8 mph - N/A   Partly Cloudy
4:56 PM 69.1 °F - 45.0 °F 42% 29.83 in 10.0 mi South 10.4 mph - N/A   Partly Cloudy
5:56 PM 70.0 °F - 46.9 °F 44% 29.80 in 10.0 mi South 9.2 mph - N/A   Partly Cloudy
6:56 PM 70.0 °F - 45.0 °F 41% 29.78 in 10.0 mi South 6.9 mph - N/A   Partly Cloudy
7:56 PM 68.0 °F - 42.1 °F 39% 29.76 in 10.0 mi South 11.5 mph - N/A   Partly Cloudy
8:56 PM 66.0 °F - 44.1 °F 45% 29.76 in 10.0 mi South 11.5 mph - N/A   Partly Cloudy
9:56 PM 64.9 °F - 44.1 °F 47% 29.75 in 10.0 mi South 13.8 mph 19.6 mph N/A   Clear
10:56 PM 63.0 °F - 48.9 °F 60% 29.74 in 10.0 mi South 17.3 mph 26.5 mph N/A   Clear
11:56 PM 61.0 °F - 50.0 °F 67% 29.72 in 10.0 mi South 19.6 mph 26.5 mph N/A   Clear